| time (UTC) | temp F | wind direction | speed knots | gust knots | rain 1hr in | rain 24hr in | rain mn in | humidity % | barometer mb |
| 20260510020609 | 60 | 252 | 11.3 | 21.7 | 0.00 | 0.13 | 0.04 | 81 | 999.4 |
| 20260510015607 | 60 | 278 | 12.2 | 20.9 | 0.00 | 0.13 | 0.04 | 81 | 998.9 |
| 20260510014543 | 60 | 259 | 15.6 | 27.8 | 0.00 | 0.13 | 0.04 | 81 | 998.7 |
| 20260510013541 | 60 | 248 | 14.8 | 23.5 | 0.00 | 0.13 | 0.04 | 81 | 998.9 |
| 20260510012558 | 60 | 255 | 13.9 | 21.7 | 0.00 | 0.13 | 0.04 | 81 | 999.1 |
| 20260510011535 | 60 | 281 | 15.6 | 23.5 | 0.00 | 0.13 | 0.04 | 81 | 998.5 |
| 20260510010534 | 60 | 239 | 17.4 | 26.1 | 0.00 | 0.13 | 0.04 | 81 | 998.4 |
| 20260510005530 | 61 | 270 | 18.2 | 26.1 | 0.00 | 0.13 | 0.04 | 82 | 997.7 |
| 20260510004529 | 60 | 265 | 13.9 | 29.5 | 0.00 | 0.14 | 0.04 | 80 | 997.9 |
| 20260510003525 | 61 | 236 | 11.3 | 23.5 | 0.00 | 0.14 | 0.04 | 79 | 998.8 |
| 20260510002543 | 60 | 269 | 10.4 | 20.0 | 0.00 | 0.14 | 0.04 | 80 | 998.8 |
| 20260510001524 | 60 | 271 | 15.6 | 25.2 | 0.00 | 0.14 | 0.04 | 81 | 998.9 |
| 20260510000517 | 60 | 267 | 15.6 | 31.3 | 0.00 | 0.14 | 0.04 | 81 | 999.0 |
| 20260509235614 | 60 | 262 | 13.9 | 25.2 | 0.00 | 0.15 | 0.04 | 81 | 999.0 |
| 20260509234612 | 60 | 263 | 13.9 | 20.9 | 0.00 | 0.15 | 0.04 | 81 | 999.4 |
| 20260509233609 | 60 | 292 | 16.5 | 31.3 | 0.00 | 0.15 | 0.04 | 81 | 999.4 |
| 20260509232607 | 60 | 270 | 12.2 | 20.0 | 0.00 | 0.15 | 0.04 | 83 | 999.4 |
| 20260509231605 | 60 | 265 | 7.8 | 14.8 | 0.00 | 0.15 | 0.04 | 85 | 999.2 |
| 20260509230601 | 60 | 250 | 14.8 | 19.1 | 0.00 | 0.15 | 0.04 | 83 | 999.5 |
| 20260509225640 | 59 | 270 | 15.6 | 23.5 | 0.00 | 0.15 | 0.04 | 85 | 999.3 |
| 20260509224631 | 59 | 304 | 13.0 | 23.5 | 0.00 | 0.15 | 0.04 | 86 | 999.2 |
| 20260509223614 | 59 | 273 | 14.8 | 20.9 | 0.00 | 0.15 | 0.04 | 87 | 999.0 |
| 20260509222552 | 58 | 261 | 15.6 | 23.5 | 0.00 | 0.15 | 0.04 | 88 | 998.8 |
| 20260509221549 | 57 | 281 | 16.5 | 29.5 | 0.00 | 0.15 | 0.04 | 89 | 998.5 |
| 20260509220607 | 57 | 263 | 15.6 | 25.2 | 0.00 | 0.15 | 0.04 | 89 | 998.8 |
| 20260509215603 | 57 | 292 | 16.5 | 26.1 | 0.00 | 0.15 | 0.04 | 90 | 999.0 |
| 20260509214541 | 57 | 274 | 13.9 | 21.7 | 0.00 | 0.15 | 0.04 | 89 | 999.2 |
| 20260509213537 | 56 | 287 | 13.9 | 21.7 | 0.00 | 0.15 | 0.04 | 90 | 999.3 |
| 20260509212555 | 57 | 275 | 12.2 | 23.5 | 0.01 | 0.15 | 0.04 | 91 | 999.5 |
| 20260509211532 | 56 | 279 | 13.9 | 23.5 | 0.01 | 0.15 | 0.04 | 91 | 999.4 |
| 20260509210531 | 56 | 282 | 15.6 | 21.7 | 0.01 | 0.15 | 0.04 | 91 | 999.5 |
| 20260509205527 | 56 | 270 | 13.0 | 21.7 | 0.01 | 0.15 | 0.04 | 91 | 999.5 |
| 20260509204546 | 55 | 248 | 11.3 | 17.4 | 0.01 | 0.15 | 0.04 | 92 | 999.7 |
| 20260509203522 | 55 | 273 | 10.4 | 20.0 | 0.01 | 0.15 | 0.04 | 92 | 999.9 |
| 20260509202519 | 55 | 283 | 10.4 | 20.0 | 0.00 | 0.14 | 0.02 | 92 | 999.6 |
| 20260509201537 | 55 | 274 | 13.9 | 20.0 | 0.00 | 0.14 | 0.02 | 91 | 999.4 |
| 20260509200615 | 55 | 254 | 13.0 | 18.2 | 0.00 | 0.15 | 0.02 | 90 | 999.1 |
| 20260509195613 | 55 | 289 | 18.2 | 23.5 | 0.01 | 0.15 | 0.02 | 89 | 998.8 |
| 20260509194630 | 55 | 278 | 17.4 | 26.1 | 0.01 | 0.15 | 0.02 | 89 | 999.2 |
| 20260509193628 | 54 | 290 | 12.2 | 21.7 | 0.01 | 0.15 | 0.02 | 91 | 999.9 |
| 20260509192604 | 54 | 293 | 7.8 | 17.4 | 0.02 | 0.15 | 0.02 | 90 | 1000.1 |
| 20260509191602 | 54 | 306 | 4.3 | 7.8 | 0.02 | 0.17 | 0.02 | 90 | 1000.3 |
| 20260509190619 | 54 | 313 | 7.8 | 12.2 | 0.02 | 0.17 | 0.02 | 89 | 1000.2 |
| 20260509185556 | 54 | 293 | 9.6 | 13.9 | 0.01 | 0.15 | 0.01 | 89 | 1000.0 |
| 20260509184554 | 54 | 274 | 7.0 | 12.2 | 0.01 | 0.15 | 0.01 | 90 | 999.9 |
| 20260509183551 | 54 | 293 | 7.8 | 13.9 | 0.01 | 0.15 | 0.01 | 90 | 999.8 |
| 20260509182549 | 54 | 293 | 7.0 | 9.6 | 0.00 | 0.14 | 0.00 | 90 | 999.9 |
| 20260509181546 | 54 | 270 | 9.6 | 15.6 | 0.00 | 0.14 | 0.00 | 89 | 999.9 |
| 20260509180626 | 54 | 293 | 3.5 | 7.8 | 0.00 | 0.14 | 0.00 | 88 | 1000.0 |
| 20260509175541 | 54 | 282 | 5.2 | 12.2 | 0.00 | 0.14 | 0.00 | 88 | 999.9 |
| 20260509174600 | 54 | 273 | 4.3 | 9.6 | 0.00 | 0.14 | 0.00 | 88 | 1000.0 |
| 20260509173536 | 54 | 308 | 7.8 | 13.0 | 0.00 | 0.14 | 0.00 | 89 | 1000.1 |
| 20260509172533 | 54 | 293 | 6.1 | 9.6 | 0.00 | 0.14 | 0.00 | 88 | 999.7 |
| 20260509171530 | 54 | 291 | 10.4 | 19.1 | 0.00 | 0.14 | 0.00 | 87 | 999.4 |
| 20260509170529 | 54 | 270 | 9.6 | 17.4 | 0.00 | 0.14 | 0.00 | 87 | 999.0 |
| 20260509165526 | 54 | 274 | 13.9 | 26.1 | 0.00 | 0.14 | 0.00 | 88 | 998.6 |
| 20260509164523 | 54 | 281 | 15.6 | 21.7 | 0.00 | 0.14 | 0.00 | 88 | 998.3 |
| 20260509163520 | 53 | 270 | 14.8 | 20.0 | 0.00 | 0.14 | 0.00 | 88 | 998.3 |
| 20260509162518 | 53 | 283 | 12.2 | 23.5 | 0.00 | 0.14 | 0.00 | 89 | 998.6 |
| 20260509161619 | 53 | 270 | 16.5 | 23.5 | 0.00 | 0.14 | 0.00 | 89 | 998.4 |
| 20260509160614 | 53 | 260 | 14.8 | 26.9 | 0.00 | 0.14 | 0.00 | 90 | 998.3 |
| 20260509155611 | 53 | 293 | 15.6 | 25.2 | 0.00 | 0.14 | 0.00 | 90 | 998.3 |
| 20260509154628 | 53 | 277 | 16.5 | 23.5 | 0.00 | 0.14 | 0.00 | 90 | 998.5 |
| 20260509153605 | 53 | 279 | 15.6 | 27.8 | 0.00 | 0.14 | 0.00 | 89 | 998.6 |
| 20260509152602 | 53 | 278 | 14.8 | 21.7 | 0.00 | 0.14 | 0.00 | 89 | 998.6 |
| 20260509151621 | 53 | 293 | 16.5 | 26.1 | 0.00 | 0.14 | 0.00 | 89 | 998.7 |
| 20260509150618 | 53 | 279 | 15.6 | 23.5 | 0.00 | 0.14 | 0.00 | 89 | 999.0 |
| 20260509145554 | 53 | 280 | 12.2 | 25.2 | 0.00 | 0.14 | 0.00 | 89 | 999.2 |
| 20260509144613 | 53 | 281 | 13.0 | 21.7 | 0.00 | 0.14 | 0.00 | 89 | 999.3 |
| 20260509143549 | 53 | 296 | 12.2 | 21.7 | 0.00 | 0.14 | 0.00 | 88 | 999.5 |
| 20260509142547 | 53 | 300 | 13.0 | 23.5 | 0.00 | 0.14 | 0.00 | 88 | 999.5 |
| 20260509141544 | 53 | 274 | 15.6 | 26.1 | 0.00 | 0.14 | 0.00 | 89 | 999.4 |
| 20260509140541 | 53 | 274 | 12.2 | 19.1 | 0.00 | 0.14 | 0.00 | 89 | 999.5 |
| 20260509135619 | 53 | 296 | 11.3 | 19.1 | 0.00 | 0.14 | 0.00 | 88 | 999.6 |
| 20260509134537 | 54 | 279 | 13.9 | 20.0 | 0.00 | 0.14 | 0.00 | 85 | 999.9 |
| 20260509133534 | 54 | 273 | 12.2 | 19.1 | 0.00 | 0.14 | 0.00 | 85 | 999.8 |
| 20260509132557 | 54 | 270 | 10.4 | 19.1 | 0.00 | 0.14 | 0.00 | 85 | 1000.0 |
| 20260509131529 | 54 | 297 | 11.3 | 19.1 | 0.00 | 0.14 | 0.00 | 83 | 999.9 |
| 20260509130526 | 54 | 287 | 8.7 | 14.8 | 0.00 | 0.14 | 0.00 | 84 | 1000.0 |
| 20260509125544 | 54 | 288 | 7.8 | 14.8 | 0.00 | 0.17 | 0.00 | 83 | 1000.4 |
| 20260509124542 | 54 | 306 | 7.0 | 13.0 | 0.00 | 0.17 | 0.00 | 83 | 1000.5 |
| 20260509123518 | 55 | 285 | 7.8 | 13.9 | 0.00 | 0.17 | 0.00 | 83 | 1000.5 |
| 20260509122536 | 55 | 273 | 7.0 | 14.8 | 0.00 | 0.18 | 0.00 | 83 | 1000.5 |
| 20260509121614 | 54 | 293 | 7.8 | 13.9 | 0.00 | 0.18 | 0.00 | 84 | 1000.6 |
| 20260509120611 | 54 | 277 | 6.1 | 12.2 | 0.00 | 0.20 | 0.00 | 84 | 1000.5 |
| 20260509115609 | 54 | 285 | 7.0 | 13.0 | 0.00 | 0.20 | 0.20 | 84 | 1000.7 |
| 20260509114631 | 54 | 299 | 5.2 | 12.2 | 0.00 | 0.20 | 0.20 | 84 | 1000.9 |
| 20260509113624 | 54 | 270 | 7.0 | 12.2 | 0.00 | 0.20 | 0.20 | 84 | 1000.8 |
| 20260509112642 | 54 | 298 | 5.2 | 13.9 | 0.00 | 0.20 | 0.20 | 84 | 1000.9 |
| 20260509111620 | 54 | 289 | 7.0 | 12.2 | 0.00 | 0.20 | 0.20 | 84 | 1001.1 |
| 20260509110556 | 54 | 287 | 6.1 | 12.2 | 0.00 | 0.20 | 0.20 | 84 | 1001.2 |
| 20260509105552 | 54 | 293 | 6.1 | 12.2 | 0.00 | 0.20 | 0.20 | 85 | 1001.2 |
| 20260509104550 | 54 | 290 | 4.3 | 9.6 | 0.00 | 0.20 | 0.20 | 85 | 1001.2 |
| 20260509103547 | 54 | 286 | 3.5 | 9.6 | 0.00 | 0.20 | 0.20 | 85 | 1001.3 |
| 20260509102545 | 54 | 322 | 3.5 | 9.6 | 0.00 | 0.20 | 0.20 | 85 | 1001.4 |
| 20260509101604 | 54 | 347 | 3.5 | 9.6 | 0.00 | 0.20 | 0.20 | 84 | 1001.4 |
| 20260509100540 | 54 | 307 | 3.5 | 7.0 | 0.00 | 0.20 | 0.20 | 83 | 1001.5 |
| 20260509095537 | 55 | 352 | 2.6 | 6.1 | 0.00 | 0.20 | 0.20 | 82 | 1001.4 |
| 20260509094535 | 54 | 295 | 2.6 | 5.2 | 0.00 | 0.20 | 0.20 | 82 | 1001.5 |
| 20260509093532 | 55 | 21 | 1.7 | 3.5 | 0.00 | 0.20 | 0.20 | 82 | 1001.3 |
| 20260509092551 | 55 | 278 | 1.7 | 3.5 | 0.00 | 0.20 | 0.20 | 81 | 1001.3 |
| 20260509091527 | 55 | 310 | 1.7 | 5.2 | 0.00 | 0.20 | 0.20 | 80 | 1001.3 |
| 20260509090525 | 55 | 358 | 1.7 | 3.5 | 0.00 | 0.20 | 0.20 | 80 | 1001.1 |
| 20260509085522 | 55 | 246 | 0.9 | 3.5 | 0.00 | 0.20 | 0.20 | 80 | 1001.0 |
| 20260509084519 | 56 | 268 | 3.5 | 9.6 | 0.00 | 0.21 | 0.20 | 79 | 1000.7 |
| 20260509083516 | 56 | 268 | 2.6 | 7.8 | 0.00 | 0.21 | 0.20 | 78 | 1000.6 |
| 20260509082616 | 56 | 260 | 5.2 | 13.0 | 0.00 | 0.21 | 0.20 | 79 | 1000.4 |
| 20260509081612 | 56 | 293 | 11.3 | 17.4 | 0.00 | 0.21 | 0.20 | 79 | 1000.1 |
| 20260509080650 | 56 | 283 | 7.8 | 13.9 | 0.00 | 0.21 | 0.20 | 81 | 1000.3 |
| 20260509075607 | 56 | 276 | 5.2 | 12.2 | 0.00 | 0.21 | 0.20 | 81 | 1000.7 |
| 20260509074604 | 56 | 305 | 7.0 | 15.6 | 0.00 | 0.21 | 0.20 | 81 | 1000.8 |
| 20260509073601 | 56 | 296 | 7.0 | 15.6 | 0.00 | 0.21 | 0.20 | 82 | 1000.7 |
| 20260509072619 | 56 | 275 | 7.0 | 13.0 | 0.00 | 0.21 | 0.20 | 82 | 1000.8 |
| 20260509071556 | 56 | 264 | 6.1 | 13.9 | 0.00 | 0.21 | 0.20 | 82 | 1000.7 |
| 20260509070554 | 56 | 283 | 7.0 | 13.9 | 0.00 | 0.21 | 0.20 | 82 | 1000.6 |
| 20260509065551 | 57 | 251 | 6.1 | 11.3 | 0.00 | 0.21 | 0.20 | 81 | 1000.8 |
| 20260509064548 | 57 | 256 | 9.6 | 20.9 | 0.00 | 0.21 | 0.20 | 81 | 1000.8 |
| 20260509063546 | 57 | 260 | 8.7 | 13.9 | 0.00 | 0.21 | 0.20 | 81 | 1000.9 |
| 20260509062543 | 57 | 261 | 8.7 | 18.2 | 0.00 | 0.21 | 0.20 | 84 | 1000.8 |
| 20260509061541 | 57 | 250 | 8.7 | 15.6 | 0.02 | 0.21 | 0.20 | 85 | 1000.8 |
| 20260509060538 | 58 | 250 | 10.4 | 25.2 | 0.02 | 0.21 | 0.20 | 85 | 1000.6 |
| 20260509055535 | 57 | 248 | 11.3 | 23.5 | 0.02 | 0.21 | 0.20 | 88 | 1000.5 |
| 20260509054534 | 58 | 245 | 8.7 | 17.4 | 0.02 | 0.21 | 0.20 | 88 | 1000.4 |
| 20260509053531 | 58 | 242 | 11.3 | 20.0 | 0.02 | 0.21 | 0.20 | 88 | 1000.4 |
| 20260509052548 | 58 | 280 | 10.4 | 19.1 | 0.02 | 0.21 | 0.20 | 89 | 1000.5 |
| 20260509051525 | 58 | 276 | 8.7 | 14.8 | 0.00 | 0.19 | 0.18 | 87 | 1000.3 |
| 20260509050524 | 58 | 265 | 7.8 | 14.8 | 0.00 | 0.19 | 0.18 | 87 | 1000.3 |
| 20260509045520 | 58 | 270 | 9.6 | 15.6 | 0.06 | 0.19 | 0.18 | 87 | 1000.5 |
| 20260509044517 | 58 | 278 | 10.4 | 20.0 | 0.07 | 0.19 | 0.18 | 87 | 1000.2 |
| 20260509043615 | 58 | 267 | 10.4 | 20.9 | 0.07 | 0.19 | 0.18 | 87 | 1000.1 |
| 20260509042613 | 58 | 266 | 7.8 | 13.9 | 0.07 | 0.19 | 0.18 | 88 | 999.9 |
| 20260509041611 | 58 | 277 | 9.6 | 19.1 | 0.07 | 0.19 | 0.18 | 89 | 999.8 |
| 20260509040607 | 57 | 254 | 11.3 | 19.1 | 0.07 | 0.19 | 0.18 | 90 | 999.9 |
| 20260509035606 | 59 | 236 | 15.6 | 25.2 | 0.01 | 0.13 | 0.12 | 86 | 1000.2 |
| 20260509034602 | 60 | 270 | 9.6 | 13.9 | 0.00 | 0.12 | 0.11 | 84 | 1000.1 |
| 20260509033559 | 60 | 268 | 10.4 | 19.1 | 0.00 | 0.12 | 0.11 | 83 | 1000.3 |
| 20260509032557 | 60 | 270 | 9.6 | 21.7 | 0.00 | 0.12 | 0.11 | 84 | 1000.3 |
| 20260509031554 | 60 | 269 | 7.8 | 13.9 | 0.00 | 0.12 | 0.11 | 84 | 1000.2 |
| 20260509030552 | 61 | 266 | 9.6 | 19.1 | 0.00 | 0.12 | 0.11 | 83 | 999.8 |
| 20260509025550 | 61 | 278 | 10.4 | 17.4 | 0.00 | 0.12 | 0.11 | 82 | 999.8 |
| 20260509024607 | 60 | 260 | 13.0 | 26.1 | 0.00 | 0.12 | 0.11 | 82 | 999.6 |
| 20260509023544 | 60 | 286 | 7.8 | 13.9 | 0.00 | 0.12 | 0.11 | 86 | 999.7 |
| 20260509022541 | 60 | 266 | 12.2 | 27.8 | 0.00 | 0.12 | 0.11 | 85 | 999.4 |
| 20260509021544 | 61 | 270 | 15.6 | 25.2 | 0.00 | 0.12 | 0.11 | 81 | 999.3 |